contact:dominique.lefevre@mio.osupytheas.fr, maurice.libes@osupytheas.fr
Project:EMSO Ligure-ouest http://www.emso-fr.org/EMSO-France
Sensor Aquadopp, line 04 Serial AQD8517 
DOI : "https://doi.org/10.17882/74513; https://doi.org/10.17882/83244" 
Title:EMSO Ligure Ouest : Data ligne ALBATROSS capteur AQUADOPP - deploiement 2021
Id,Date,Profondeur,Latitude,Longitude,X_East,Y_North,Z_Up,Amplitude_X,Amplitude_Y,Amplitude_Z,Batterie,SoundSpeed,Heading,Pitch,Roll,Pressure,Temperature,Speed,Direction
, , m, degrees North, degrees East, m.s-1, m.s-1,m.s-1, 1, 1, 1, Volt, m.s-1, degree, degree, degree, dbar, degree_C, m.s-1, degree
04,2022-02-25T21:30:00,1000.0,42.79,6.0312,-0.03,0.019,0.006,58.0,61.0,58.0,12.3,1504.8,309.6,-0.7,-0.5,967.434,13.31,0.035,302.3
04,2022-02-25T22:00:00,1000.0,42.79,6.0312,-0.059,0.007,0.013,60.0,63.0,59.0,12.3,1504.7,305.6,-0.7,-0.4,967.405,13.3,0.059,276.8
04,2022-02-25T22:30:00,1000.0,42.79,6.0312,-0.079,0.009,0.003,58.0,60.0,59.0,12.3,1504.7,301.9,-0.7,-0.4,967.448,13.28,0.079,276.5
04,2022-02-25T23:00:00,1000.0,42.79,6.0312,-0.068,0.011,0.004,61.0,62.0,58.0,12.3,1504.7,304.5,-0.8,-0.4,967.456,13.28,0.068,279.2
04,2022-02-25T23:30:00,1000.0,42.79,6.0312,-0.059,0.004,-0.013,61.0,62.0,59.0,12.3,1504.7,301.6,-0.8,-0.4,967.468,13.28,0.059,273.9
04,2022-02-26T00:00:00,1000.0,42.79,6.0312,-0.069,-0.003,0.02,65.0,66.0,63.0,12.3,1504.7,303.0,-0.8,-0.4,967.485,13.28,0.069,267.5
04,2022-02-26T00:30:00,1000.0,42.79,6.0312,-0.058,0.007,-0.006,64.0,68.0,63.0,12.3,1504.7,304.9,-0.7,-0.4,967.493,13.28,0.058,276.9
04,2022-02-26T01:00:00,1000.0,42.79,6.0312,-0.051,0.002,-0.01,65.0,66.0,64.0,12.3,1504.7,296.4,-0.8,-0.4,967.474,13.28,0.051,272.2
04,2022-02-26T01:30:00,1000.0,42.79,6.0312,-0.056,0.012,-0.009,64.0,66.0,64.0,12.3,1504.7,310.6,-0.8,-0.5,967.505,13.28,0.057,282.1
04,2022-02-26T02:00:00,1000.0,42.79,6.0312,-0.042,0.026,0.003,63.0,66.0,64.0,12.3,1504.7,324.4,-0.5,-0.5,967.55,13.29,0.049,301.8
04,2022-02-26T02:30:00,1000.0,42.79,6.0312,-0.034,0.039,0.007,65.0,66.0,64.0,12.3,1504.7,327.4,-0.8,-0.5,967.557,13.28,0.051,318.9
04,2022-02-26T03:00:00,1000.0,42.79,6.0312,-0.052,0.001,0.019,64.0,66.0,63.0,12.3,1504.7,278.3,-0.8,-0.3,967.555,13.29,0.052,271.1
04,2022-02-26T03:30:00,1000.0,42.79,6.0312,-0.027,0.007,0.0,65.0,67.0,62.0,12.3,1504.7,281.3,-0.7,-0.4,967.567,13.28,0.027,284.5
04,2022-02-26T04:00:00,1000.0,42.79,6.0312,-0.025,0.026,-0.009,64.0,67.0,64.0,12.3,1504.7,313.4,-0.6,-0.5,967.529,13.28,0.036,316.1
04,2022-02-26T04:30:00,1000.0,42.79,6.0312,-0.043,0.003,0.0,64.0,67.0,64.0,12.3,1504.7,300.5,-0.9,-0.4,967.601,13.28,0.043,274.0
04,2022-02-26T05:00:00,1000.0,42.79,6.0312,-0.052,0.023,0.005,64.0,66.0,63.0,12.3,1504.7,313.9,-0.6,-0.5,967.571,13.28,0.056,293.9
04,2022-02-26T05:30:00,1000.0,42.79,6.0312,-0.053,-0.011,0.012,64.0,66.0,62.0,12.3,1504.6,281.8,-0.8,-0.4,967.585,13.27,0.054,258.3
04,2022-02-26T06:00:00,1000.0,42.79,6.0312,-0.06,0.013,0.002,63.0,66.0,62.0,12.3,1504.6,309.5,-0.6,-0.5,967.582,13.27,0.061,282.2
04,2022-02-26T06:30:00,1000.0,42.79,6.0312,-0.057,-0.008,-0.003,64.0,66.0,64.0,12.3,1504.6,280.1,-0.8,-0.4,967.568,13.27,0.057,262.0
04,2022-02-26T07:00:00,1000.0,42.79,6.0312,-0.049,0.024,0.001,64.0,67.0,63.0,12.3,1504.6,307.6,-0.6,-0.5,967.553,13.27,0.054,296.1
04,2022-02-26T07:30:00,1000.0,42.79,6.0312,-0.063,0.02,-0.013,64.0,66.0,63.0,12.3,1504.6,298.4,-0.8,-0.6,967.572,13.27,0.066,287.6
04,2022-02-26T08:00:00,1000.0,42.79,6.0312,-0.052,0.009,0.004,64.0,66.0,62.0,12.3,1504.6,284.7,-0.8,-0.4,967.556,13.27,0.052,279.8
04,2022-02-26T08:30:00,1000.0,42.79,6.0312,-0.049,0.028,0.002,65.0,66.0,63.0,12.3,1504.6,312.3,-0.6,-0.5,967.529,13.27,0.056,299.7
04,2022-02-26T09:00:00,1000.0,42.79,6.0312,-0.061,0.005,-0.001,63.0,66.0,64.0,12.3,1504.6,297.0,-1.0,-0.4,967.508,13.26,0.061,274.7
04,2022-02-26T09:30:00,1000.0,42.79,6.0312,-0.054,0.013,0.004,63.0,66.0,62.0,12.3,1504.6,301.7,-0.6,-0.6,967.523,13.27,0.055,283.5
04,2022-02-26T10:00:00,1000.0,42.79,6.0312,-0.06,0.012,-0.005,64.0,66.0,64.0,12.3,1504.6,296.4,-0.9,-0.3,967.491,13.27,0.061,281.3
04,2022-02-26T10:30:00,1000.0,42.79,6.0312,-0.053,0.019,0.015,65.0,67.0,63.0,12.3,1504.6,307.4,-0.9,-0.5,967.472,13.26,0.056,289.7
04,2022-02-26T11:00:00,1000.0,42.79,6.0312,-0.05,-0.009,-0.003,65.0,65.0,62.0,12.3,1504.6,281.1,-0.8,-0.3,967.47,13.26,0.05,259.8
04,2022-02-26T11:30:00,1000.0,42.79,6.0312,-0.064,0.002,0.006,63.0,66.0,63.0,12.3,1504.6,278.3,-0.8,-0.3,967.463,13.27,0.064,271.8
04,2022-02-26T12:00:00,1000.0,42.79,6.0312,-0.036,0.033,-0.011,64.0,68.0,62.0,12.3,1504.6,315.8,-0.6,-0.5,967.453,13.27,0.048,312.5
04,2022-02-26T12:30:00,1000.0,42.79,6.0312,-0.034,0.027,0.006,65.0,66.0,63.0,12.3,1504.7,307.2,-0.7,-0.5,967.472,13.29,0.043,308.5
04,2022-02-26T13:00:00,1000.0,42.79,6.0312,-0.039,0.028,0.009,63.0,67.0,64.0,12.4,1504.7,311.5,-0.7,-0.6,967.475,13.29,0.048,305.7
04,2022-02-26T13:30:00,1000.0,42.79,6.0312,-0.037,0.019,-0.011,65.0,67.0,64.0,12.3,1504.7,294.9,-0.8,-0.5,967.52,13.28,0.041,297.2
04,2022-02-26T14:00:00,1000.0,42.79,6.0312,-0.03,0.017,-0.004,64.0,67.0,63.0,12.3,1504.7,299.4,-0.8,-0.5,967.516,13.28,0.034,299.5
04,2022-02-26T14:30:00,1000.0,42.79,6.0312,-0.035,0.009,0.005,64.0,66.0,64.0,12.3,1504.7,292.0,-0.9,-0.4,967.488,13.29,0.036,284.4
04,2022-02-26T15:00:00,1000.0,42.79,6.0312,-0.037,0.002,-0.01,63.0,66.0,62.0,12.3,1504.7,292.3,-0.8,-0.5,967.53,13.29,0.037,273.1
04,2022-02-26T15:30:00,1000.0,42.79,6.0312,-0.048,-0.005,0.011,65.0,67.0,63.0,12.3,1504.7,291.3,-0.9,-0.6,967.566,13.29,0.048,264.1
04,2022-02-26T16:00:00,1000.0,42.79,6.0312,-0.027,0.0,0.005,67.0,67.0,62.0,12.3,1504.7,291.2,-1.0,-0.5,967.567,13.29,0.026,270.0
04,2022-02-26T16:30:00,1000.0,42.79,6.0312,-0.036,-0.012,0.003,65.0,66.0,63.0,12.3,1504.7,292.2,-1.0,-0.5,967.578,13.29,0.037,251.6
04,2022-02-26T17:00:00,1000.0,42.79,6.0312,-0.034,-0.001,0.006,63.0,65.0,64.0,12.3,1504.7,289.7,-1.0,-0.5,967.589,13.29,0.034,268.3
04,2022-02-26T17:30:00,1000.0,42.79,6.0312,-0.044,-0.009,-0.01,64.0,67.0,64.0,12.3,1504.7,291.1,-1.1,-0.5,967.575,13.28,0.044,258.4
04,2022-02-26T18:00:00,1000.0,42.79,6.0312,-0.049,-0.003,-0.008,64.0,66.0,64.0,12.3,1504.7,291.1,-1.1,-0.5,967.556,13.28,0.049,266.5
04,2022-02-26T18:30:00,1000.0,42.79,6.0312,-0.062,-0.013,0.009,64.0,67.0,65.0,12.3,1504.7,289.1,-1.0,-0.5,967.558,13.28,0.063,258.2
04,2022-02-26T19:00:00,1000.0,42.79,6.0312,-0.05,-0.002,-0.01,65.0,66.0,63.0,12.3,1504.7,290.9,-0.9,-0.5,967.5,13.28,0.05,267.7
04,2022-02-26T19:30:00,1000.0,42.79,6.0312,-0.053,0.0,0.0,65.0,66.0,64.0,12.3,1504.6,292.0,-1.0,-0.5,967.498,13.27,0.053,270.0
04,2022-02-26T20:00:00,1000.0,42.79,6.0312,-0.058,-0.015,0.021,65.0,67.0,65.0,12.3,1504.6,289.5,-0.9,-0.5,967.475,13.27,0.059,255.5
04,2022-02-26T20:30:00,1000.0,42.79,6.0312,-0.055,-0.01,0.0,66.0,66.0,63.0,12.3,1504.6,293.8,-0.8,-0.5,967.461,13.26,0.055,259.7
04,2022-02-26T21:00:00,1000.0,42.79,6.0312,-0.052,-0.017,-0.014,65.0,68.0,64.0,12.3,1504.6,288.1,-0.8,-0.5,967.407,13.27,0.054,251.9
